Regional Weather Roundup
Issued by NWS

Home | Current Version | Previous Version | Text Only | Print | Product List | Glossary Off
Versions: 1 2 3 4 5 6 7 8 9 10 11 12 13 14 15 16 17 18 19 20 21 22 23 24 25 26 27 28 29 30 31 32 33 34 35 36 37 38 39 40 41 42 43 44 45 46 47 48 49 50

000
ASUS44 KMEG 311000
RWRTN
TENNESSEE HOURLY STATE WEATHER ROUNDUP
NATIONAL WEATHER SERVICE MEMPHIS TN
500 AM CDT MON AUG 31 2015

TNZ002-004-019-021-049-052-054-088>092-311100-
WEST TENNESSEE

CITY           SKY/WX    TMP DP  RH WIND       PRES   REMARKS
MEMPHIS INTL   CLEAR     72  67  84 SE6       30.04R
NWS MEMPHIS      N/A     69 N/A N/A MISG        N/A
JACKSON        CLEAR     66  64  93 CALM      30.06R
DYERSBURG      CLEAR    N/A N/A N/A MISG        N/A
$$

TNZ008-025-027-028-033-062-065-066-311100-
NORTH MIDDLE TENNESSEE

CITY           SKY/WX    TMP DP  RH WIND       PRES   REMARKS
NASHVILLE      CLEAR     66  63  90 CALM      30.09R
CLARKSVILLE    FOG       63  63 100 CALM      30.08R VSB 1/2
CROSSVILLE     CLEAR     64  60  87 CALM      30.15R FOG
$$

TNZ061-075-076-078-094-096-097-311100-
SOUTH MIDDLE TENNESSEE

CITY           SKY/WX    TMP DP  RH WIND       PRES   REMARKS
$$

TNZ017-018-042-046-047-311100-
NORTHEAST TENNESSEE

CITY           SKY/WX    TMP DP  RH WIND       PRES   REMARKS
TRI CITIES     CLOUDY    66  65  96 CALM      30.15S FOG
$$

TNZ012-013-036-069-073-074-311100-
CENTRAL EAST TENNESSEE

CITY           SKY/WX    TMP DP  RH WIND       PRES   REMARKS
KNOXVILLE      PTCLDY    66  65  96 CALM      30.10R
OAK RIDGE      CLEAR     66  64  93 CALM      30.13R
GATLINBURG     SUNNY     61  61 100 CALM      30.12S
$$

TNZ083-085-099-311100-
SOUTHEAST TENNESSEE

CITY           SKY/WX    TMP DP  RH WIND       PRES   REMARKS
CHATTANOOGA    CLOUDY    70  65  84 CALM      30.10R
$$

SKY/WX REPORTED AS FAIR MEANS FEW OR NO CLOUDS BELOW
12 THOUSAND FEET.



USA.gov is the U.S. government's official web portal to all federal, state and local government web resources and services.